Lacon, IL

2:22 PM CST on December 02, 2016 (GMT -0600)
Lacon

Weather History for KC75 - May, 2014

Change the Weather History Date:

Tuesday, May 13, 2014

  Actual Average (KPIA) Record (KPIA)
Temperature  
Mean Temperature 58 °F 62 °F  
Max Temperature 65 °F 72 °F 90 °F (1915)
Min Temperature 50 °F 51 °F 30 °F (1971)
Degree Days  
Heating Degree Days 8 5  
Month to date heating degree days 85  
Since 1 July heating degree days 5750  
Cooling Degree Days 0 2  
Month to date cooling degree days 16  
Year to date cooling degree days 30  
Growing Degree Days 8 (Base 50)    
Moisture  
Dew Point 52 °F    
Average Humidity 85    
Maximum Humidity 100    
Minimum Humidity 71    
Precipitation  
Precipitation 0.12 in 0.15 in 3.10 in (1957)
Month to date precipitation 1.82  
Year to date precipitation 11.82  
Snow  
Snow 0.00 in 0.00 in 0.00 in ()
Month to date snowfall 0.0  
Since 1 July snowfall 24.6  
Snow Depth -    
Sea Level Pressure  
Sea Level Pressure 30.03 in    
Wind  
Wind Speed 8 mph (WNW)    
Max Wind Speed 13 mph    
Max Gust Speed 21 mph    
Visibility 9 miles    
Events Rain    
T = Trace of Precipitation, MM = Missing Value Source: NWS Daily Summary

Daily Weather History Graph

Daily Weather History Graph

Search for Another Location

Airport or City:

Trip Planner

Search our weather history database for the weather conditions in past years. The results will help you decide how hot, cold, wet, or windy it might be!

Date:

Astronomy

May. 13, 2014 Rise Set
Actual Time 5:41 AM CDT 8:06 PM CDT
Civil Twilight 5:10 AM CDT 8:37 PM CDT
Nautical Twilight 4:32 AM CDT 9:16 PM CDT
Astronomical Twilight 3:49 AM CDT 9:59 PM CDT
Moon 7:07 PM CDT (5/13) 4:59 AM CDT (5/13)
Length of Visible Light 15h 27m
Length of Day
14h 25m
Waxing Gibbous, 99% of the Moon is Illuminated
May 13
Waxing Gibbous
May 14
Full
May 21
Last Quarter
May 28
New
Jun 5
First Quarter

Hourly Weather History & Observations

Time (CDT) Temp. Dew Point Humidity Pressure Visibility Wind Dir Wind Speed Gust Speed Precip Events Conditions
12:15 AM 65.5 °F 64.4 °F 96% 29.85 in 10.0 mi SSE 5.8 mph - N/A   Mostly Cloudy
12:35 AM 65.5 °F 64.4 °F 96% 29.86 in 10.0 mi SSE 5.8 mph - N/A Rain Light Rain
12:55 AM 65.3 °F 63.9 °F 95% 29.85 in 10.0 mi SE 8.1 mph - N/A   Mostly Cloudy
1:15 AM 65.3 °F 63.5 °F 94% 29.84 in 10.0 mi SE 9.2 mph - N/A   Mostly Cloudy
1:35 AM 65.3 °F 63.0 °F 92% 29.84 in 10.0 mi SE 10.4 mph - N/A   Mostly Cloudy
1:55 AM 65.3 °F 63.1 °F 93% 29.85 in 10.0 mi WSW 5.8 mph - N/A   Overcast
2:15 AM 65.3 °F 63.5 °F 94% 29.88 in 10.0 mi SW 5.8 mph - N/A   Overcast
2:35 AM 65.3 °F 63.9 °F 95% 29.90 in 10.0 mi SSW 5.8 mph - N/A   Drizzle
2:55 AM 64.9 °F 63.9 °F 96% 29.88 in 7.0 mi SSE 4.6 mph - 0.02 in Rain Light Rain
3:15 AM 64.9 °F 63.7 °F 96% 29.89 in 10.0 mi South 5.8 mph - N/A Rain Light Rain
3:35 AM 64.9 °F 63.9 °F 96% 29.89 in 10.0 mi South 4.6 mph - 0.01 in   Drizzle
3:55 AM 64.8 °F 63.9 °F 97% 29.90 in 10.0 mi SSW 5.8 mph - 0.01 in Rain Light Rain
4:15 AM 64.6 °F 63.7 °F 97% 29.89 in 5.0 mi South 5.8 mph - 0.02 in Rain Rain
4:35 AM 63.3 °F 62.2 °F 96% 29.90 in 5.0 mi WNW 10.4 mph 17.3 mph 0.05 in Rain Heavy Rain
4:55 AM 59.2 °F 57.9 °F 96% 29.90 in 5.0 mi WNW 9.2 mph 19.6 mph 0.06 in Rain Light Rain
5:15 AM 57.7 °F 56.7 °F 96% 29.90 in 5.0 mi NW 6.9 mph - 0.01 in Rain Rain
5:35 AM 57.2 °F 55.8 °F 95% 29.91 in 7.0 mi WNW 8.1 mph 17.3 mph 0.03 in Rain Rain
5:55 AM 56.3 °F 54.9 °F 95% 29.90 in 5.0 mi NW 8.1 mph - 0.03 in Rain Light Rain
6:15 AM 55.8 °F 54.7 °F 96% 29.91 in 3.0 mi WNW 9.2 mph - N/A Rain Light Rain
6:35 AM 55.8 °F 54.5 °F 96% 29.94 in 7.0 mi West 6.9 mph - N/A   Light Drizzle
6:55 AM 54.9 °F 53.6 °F 96% 29.95 in 10.0 mi West 8.1 mph - N/A   Drizzle
7:55 AM 53.6 °F 53.6 °F 100% 29.96 in 4.0 mi WNW 10.4 mph - N/A   Drizzle
8:15 AM 53.8 °F 52.2 °F 94% 29.96 in 4.0 mi WNW 8.1 mph - N/A   Light Drizzle
8:35 AM 54.0 °F 52.0 °F 93% 29.98 in 10.0 mi West 5.8 mph - N/A   Overcast
9:15 AM 54.0 °F 50.9 °F 89% 30.00 in 10.0 mi WNW 10.4 mph - N/A   Overcast
10:55 AM 55.0 °F 50.2 °F 84% 30.03 in 10.0 mi WNW 9.2 mph - N/A   Overcast
11:35 AM 54.7 °F 49.3 °F 82% 30.04 in 10.0 mi WNW 6.9 mph - N/A   Overcast
12:15 PM 53.6 °F 49.1 °F 85% 30.05 in 10.0 mi West 12.7 mph 20.7 mph N/A   Overcast
12:35 PM 53.8 °F 48.7 °F 83% 30.05 in 10.0 mi West 8.1 mph 17.3 mph N/A   Overcast
12:55 PM 53.6 °F 48.0 °F 81% 30.05 in 10.0 mi WNW 12.7 mph 18.4 mph N/A   Overcast
1:15 PM 53.8 °F 48.4 °F 82% 30.06 in 10.0 mi WNW 12.7 mph - N/A   Overcast
1:35 PM 53.6 °F 48.0 °F 81% 30.06 in 10.0 mi WNW 11.5 mph 19.6 mph N/A Rain Light Rain
1:55 PM 53.6 °F 48.9 °F 84% 30.06 in 10.0 mi NW 12.7 mph - N/A Rain Light Rain
2:15 PM 53.6 °F 48.0 °F 81% 30.06 in 10.0 mi WNW 8.1 mph 17.3 mph N/A   Overcast
2:35 PM 53.8 °F 47.5 °F 79% 30.07 in 10.0 mi WNW 11.5 mph - N/A   Overcast
2:55 PM 53.6 °F 47.3 °F 79% 30.08 in 10.0 mi WNW 11.5 mph 16.1 mph N/A   Overcast
3:15 PM 53.8 °F 47.3 °F 79% 30.08 in 10.0 mi WNW 11.5 mph 17.3 mph N/A   Overcast
3:35 PM 53.8 °F 47.3 °F 79% 30.09 in 10.0 mi NW 12.7 mph 18.4 mph N/A   Overcast
3:55 PM 53.8 °F 46.9 °F 78% 30.09 in 10.0 mi NW 9.2 mph 18.4 mph N/A   Overcast
4:15 PM 53.2 °F 47.1 °F 80% 30.09 in 10.0 mi NW 9.2 mph - N/A   Overcast
4:35 PM 53.6 °F 46.8 °F 78% 30.09 in 10.0 mi NW 12.7 mph - N/A Rain Light Rain
4:55 PM 52.9 °F 47.1 °F 81% 30.10 in 10.0 mi WNW 8.1 mph - N/A Rain Light Rain
5:15 PM 53.2 °F 46.9 °F 79% 30.11 in 10.0 mi WNW 8.1 mph - N/A   Overcast
5:35 PM 53.6 °F 46.4 °F 77% 30.11 in 10.0 mi WNW 12.7 mph 17.3 mph N/A   Overcast
5:55 PM 53.2 °F 46.4 °F 78% 30.11 in 10.0 mi WNW 9.2 mph - N/A   Overcast
6:15 PM 52.9 °F 46.4 °F 79% 30.11 in 10.0 mi NW 11.5 mph - N/A   Overcast
6:35 PM 52.7 °F 45.9 °F 78% 30.12 in 10.0 mi WNW 9.2 mph - N/A   Overcast
6:55 PM 52.7 °F 45.7 °F 77% 30.12 in 10.0 mi WNW 6.9 mph - N/A   Overcast
7:15 PM 52.7 °F 45.7 °F 77% 30.13 in 10.0 mi WNW 9.2 mph - N/A   Overcast
7:35 PM 52.7 °F 45.7 °F 77% 30.13 in 10.0 mi NW 6.9 mph - N/A   Overcast
7:55 PM 52.7 °F 45.1 °F 75% 30.13 in 10.0 mi WNW 6.9 mph - N/A   Overcast
8:15 PM 52.7 °F 45.5 °F 76% 30.14 in 10.0 mi WNW 6.9 mph - N/A   Overcast
8:35 PM 52.3 °F 46.0 °F 79% 30.14 in 10.0 mi Calm Calm - N/A   Overcast
8:55 PM 52.7 °F 46.2 °F 79% 30.15 in 10.0 mi WNW 4.6 mph - N/A   Overcast
9:15 PM 52.9 °F 45.9 °F 77% 30.16 in 10.0 mi NW 6.9 mph - N/A   Overcast
9:35 PM 52.7 °F 44.6 °F 74% 30.17 in 10.0 mi NNW 6.9 mph - N/A   Overcast
9:55 PM 52.3 °F 43.9 °F 73% 30.17 in 10.0 mi NNW 8.1 mph - N/A   Overcast
10:15 PM 52.0 °F 43.5 °F 73% 30.17 in 10.0 mi NNW 6.9 mph - N/A   Scattered Clouds
10:35 PM 51.4 °F 43.3 °F 74% 30.17 in 10.0 mi NNW 6.9 mph - N/A   Clear
10:55 PM 51.8 °F 42.8 °F 71% 30.17 in 10.0 mi NW 6.9 mph - N/A   Clear
11:15 PM 50.5 °F 43.0 °F 75% 30.18 in 10.0 mi NNW 5.8 mph - N/A   Clear
11:35 PM 50.2 °F 43.3 °F 77% 30.19 in 10.0 mi NW 4.6 mph - N/A   Clear
11:55 PM 50.2 °F 43.7 °F 78% 30.20 in 10.0 mi NW 5.8 mph - N/A   Mostly Cloudy